Time,TemperatureF,DewpointF,PressureIn,WindDirection,WindDirectionDegrees,WindSpeedMPH,WindSpeedGustMPH,Humidity,HourlyPrecipIn,Conditions,Clouds,dailyrainin,SoftwareType,DateUTC
2013-08-29 00:03:00,60.1,55.2,30.20,WSW,258,8.1,8.1,84,0.00,SCT,FEW,0.00,WeatherDisplay:10.37,2013-08-28 23:03:00,
2013-08-29 00:08:00,60.1,55.2,30.20,WSW,258,8.1,8.1,84,0.00,SCT,FEW,0.00,WeatherDisplay:10.37,2013-08-28 23:08:00,
2013-08-29 00:13:00,59.7,54.9,30.20,WSW,258,6.9,6.9,84,0.00,SCT,FEW,0.00,WeatherDisplay:10.37,2013-08-28 23:13:00,
2013-08-29 00:18:00,59.5,54.7,30.20,WSW,258,10.4,10.4,84,0.00,SCT,FEW,0.00,WeatherDisplay:10.37,2013-08-28 23:18:00,
2013-08-29 00:23:00,59.5,54.7,30.20,SE,145,9.2,9.2,84,0.00,SCT,FEW,0.00,WeatherDisplay:10.37,2013-08-28 23:23:00,
2013-08-29 00:28:00,59.4,54.8,30.20,WSW,258,9.2,9.2,85,0.00,SCT,FEW,0.00,WeatherDisplay:10.37,2013-08-28 23:28:00,
2013-08-29 00:33:00,59.5,55.0,30.20,West,280,8.6,8.6,85,0.00,SCT,FEW,0.00,WeatherDisplay:10.37,2013-08-28 23:33:00,
2013-08-29 00:38:00,59.5,55.0,30.19,West,280,9.2,9.2,85,0.00,SCT,FEW,0.00,WeatherDisplay:10.37,2013-08-28 23:38:00,
2013-08-29 00:43:00,59.4,55.2,30.19,WSW,258,8.1,8.1,86,0.00,SCT,FEW,0.00,WeatherDisplay:10.37,2013-08-28 23:43:00,
2013-08-29 00:48:00,59.2,55.0,30.19,WSW,258,10.4,10.4,86,0.00,SCT,FEW,0.00,WeatherDisplay:10.37,2013-08-28 23:48:00,
2013-08-29 00:53:00,59.0,54.8,30.19,WSW,258,7.1,7.1,86,0.00,SCT,FEW,0.00,WeatherDisplay:10.37,2013-08-28 23:53:00,
2013-08-29 00:58:00,59.2,55.0,30.19,WSW,258,10.4,10.4,86,0.00,SCT,FEW,0.00,WeatherDisplay:10.37,2013-08-28 23:58:00,
2013-08-29 01:03:00,59.2,55.0,30.19,WSW,258,8.2,8.2,86,0.00,BKN,FEW,0.00,WeatherDisplay:10.37,2013-08-29 00:03:00,
2013-08-29 13:40:00,71.1,61.2,29.60,WSW,258,12.9,12.9,71,0.00,CLR,FEW,0.00,WeatherDisplay:10.37,2013-08-29 12:40:00,
2013-08-29 13:41:00,71.1,61.2,29.60,WSW,258,10.4,10.4,71,0.00,CLR,FEW,0.00,WeatherDisplay:10.37,2013-08-29 12:41:00,
2013-08-29 13:42:00,71.4,61.1,30.19,West,280,6.9,6.9,70,0.00,BKN,FEW,0.00,WeatherDisplay:10.37,2013-08-29 12:42:00,
2013-08-29 13:47:00,71.2,61.0,30.19,WSW,258,5.8,5.8,70,0.00,BKN,FEW,0.00,WeatherDisplay:10.37,2013-08-29 12:47:00,
2013-08-29 13:52:00,71.8,61.1,30.19,WSW,258,12.7,12.7,69,0.00,BKN,FEW,0.00,WeatherDisplay:10.37,2013-08-29 12:52:00,
2013-08-29 13:57:00,71.8,61.1,30.19,SE,145,9.2,9.2,69,0.00,BKN,FEW,0.00,WeatherDisplay:10.37,2013-08-29 12:57:00,
2013-08-29 14:02:00,71.6,60.9,30.19,ESE,122,9.5,9.5,69,0.00,SCT,FEW,0.00,WeatherDisplay:10.37,2013-08-29 13:02:00,
2013-08-29 14:07:00,72.0,61.2,30.19,SE,145,6.9,6.9,69,0.00,SCT,FEW,0.00,WeatherDisplay:10.37,2013-08-29 13:07:00,
2013-08-29 14:12:00,72.1,61.4,30.19,SE,145,7.0,7.0,69,0.00,SCT,FEW,0.00,WeatherDisplay:10.37,2013-08-29 13:12:00,
2013-08-29 14:17:00,71.8,60.6,30.18,ESE,122,10.4,10.4,68,0.00,SCT,FEW,0.00,WeatherDisplay:10.37,2013-08-29 13:17:00,
2013-08-29 14:22:00,71.4,60.3,30.18,ESE,122,6.9,6.9,68,0.00,SCT,FEW,0.00,WeatherDisplay:10.37,2013-08-29 13:22:00,
2013-08-29 14:27:00,71.6,60.5,30.18,WSW,258,6.9,6.9,68,0.00,SCT,FEW,0.00,WeatherDisplay:10.37,2013-08-29 13:27:00,
2013-08-29 14:32:00,71.6,60.9,30.18,WSW,258,9.2,9.2,69,0.00,SCT,FEW,0.00,WeatherDisplay:10.37,2013-08-29 13:32:00,
2013-08-29 14:38:00,71.8,61.1,30.18,ESE,122,6.9,6.9,69,0.00,SCT,FEW,0.00,WeatherDisplay:10.37,2013-08-29 13:38:00,
2013-08-29 14:42:00,71.8,61.1,30.18,NE,55,10.4,10.4,69,0.00,SCT,FEW,0.00,WeatherDisplay:10.37,2013-08-29 13:42:00,
2013-08-29 14:48:00,71.6,60.9,30.18,WSW,258,3.5,5.2,69,0.00,SCT,FEW,0.00,WeatherDisplay:10.37,2013-08-29 13:48:00,
2013-08-29 14:53:00,71.6,60.5,30.18,NW,325,6.9,6.9,68,0.00,SCT,FEW,0.00,WeatherDisplay:10.37,2013-08-29 13:53:00,
2013-08-29 14:58:00,71.6,60.5,30.18,West,280,11.5,11.5,68,0.00,SCT,FEW,0.00,WeatherDisplay:10.37,2013-08-29 13:58:00,
2013-08-29 15:03:00,71.8,60.6,30.18,WSW,258,9.2,9.2,68,0.00,SCT,FEW,0.00,WeatherDisplay:10.37,2013-08-29 14:03:00,
2013-08-29 15:08:00,72.1,61.0,30.18,WSW,258,8.1,8.1,68,0.00,SCT,FEW,0.00,WeatherDisplay:10.37,2013-08-29 14:08:00,
2013-08-29 15:13:00,72.3,61.2,30.18,WNW,302,8.5,8.5,68,0.00,SCT,FEW,0.00,WeatherDisplay:10.37,2013-08-29 14:13:00,
2013-08-29 15:18:00,72.5,60.9,30.18,West,280,6.9,6.9,67,0.00,SCT,FEW,0.00,WeatherDisplay:10.37,2013-08-29 14:18:00,
2013-08-29 15:23:00,72.3,61.2,30.18,WSW,258,5.8,5.8,68,0.00,SCT,FEW,0.00,WeatherDisplay:10.37,2013-08-29 14:23:00,
2013-08-29 15:28:00,72.3,60.3,30.18,WSW,258,10.9,10.9,66,0.00,SCT,FEW,0.00,WeatherDisplay:10.37,2013-08-29 14:28:00,
2013-08-29 15:33:00,72.1,60.6,30.18,West,280,11.8,11.8,67,0.00,SCT,FEW,0.00,WeatherDisplay:10.37,2013-08-29 14:33:00,
2013-08-29 15:38:00,72.1,60.6,30.19,WSW,258,12.7,12.7,67,0.00,SCT,FEW,0.00,WeatherDisplay:10.37,2013-08-29 14:38:00,
2013-08-29 15:43:00,71.8,60.2,30.19,SE,145,10.9,10.9,67,0.00,SCT,FEW,0.00,WeatherDisplay:10.37,2013-08-29 14:43:00,
2013-08-29 15:48:00,72.0,60.8,30.19,North,10,5.8,5.8,68,0.00,SCT,FEW,0.00,WeatherDisplay:10.37,2013-08-29 14:48:00,
2013-08-29 15:53:00,72.1,60.6,30.19,West,280,11.5,11.5,67,0.00,SCT,FEW,0.00,WeatherDisplay:10.37,2013-08-29 14:53:00,
2013-08-29 15:58:00,72.1,60.6,30.18,SE,145,6.9,6.9,67,0.00,SCT,FEW,0.00,WeatherDisplay:10.37,2013-08-29 14:58:00,
2013-08-29 16:03:00,72.1,60.6,30.18,WSW,258,5.8,5.8,67,0.00,BKN,FEW,0.00,WeatherDisplay:10.37,2013-08-29 15:03:00,
2013-08-29 16:08:00,72.1,60.6,30.18,West,280,8.1,8.1,67,0.00,BKN,FEW,0.00,WeatherDisplay:10.37,2013-08-29 15:08:00,
2013-08-29 16:13:00,72.1,60.6,30.18,WSW,258,6.9,6.9,67,0.00,BKN,FEW,0.00,WeatherDisplay:10.37,2013-08-29 15:13:00,
2013-08-29 16:18:00,72.1,60.6,30.18,NW,325,6.9,6.9,67,0.00,BKN,FEW,0.00,WeatherDisplay:10.37,2013-08-29 15:18:00,
2013-08-29 16:23:00,72.5,60.9,30.18,WSW,258,6.9,6.9,67,0.00,BKN,FEW,0.00,WeatherDisplay:10.37,2013-08-29 15:23:00,
2013-08-29 16:28:00,72.3,60.7,30.18,WSW,258,8.1,8.1,67,0.00,BKN,FEW,0.00,WeatherDisplay:10.37,2013-08-29 15:28:00,
2013-08-29 16:33:00,72.3,60.3,30.18,WSW,258,10.4,10.4,66,0.00,BKN,FEW,0.00,WeatherDisplay:10.37,2013-08-29 15:33:00,
2013-08-29 16:38:00,72.5,60.9,30.19,ESE,122,15.0,15.0,67,0.00,BKN,FEW,0.00,WeatherDisplay:10.37,2013-08-29 15:38:00,
2013-08-29 16:43:00,72.1,60.2,30.19,WSW,258,5.9,5.9,66,0.00,BKN,FEW,0.00,WeatherDisplay:10.37,2013-08-29 15:43:00,
2013-08-29 16:48:00,72.3,60.7,30.19,ESE,122,10.4,10.4,67,0.00,BKN,FEW,0.00,WeatherDisplay:10.37,2013-08-29 15:48:00,
2013-08-29 16:53:00,72.1,60.2,30.19,SE,145,8.1,8.1,66,0.00,BKN,FEW,0.00,WeatherDisplay:10.37,2013-08-29 15:53:00,
2013-08-29 16:58:00,72.0,60.4,30.19,West,280,5.8,5.8,67,0.00,BKN,FEW,0.00,WeatherDisplay:10.37,2013-08-29 15:58:00,
2013-08-29 17:03:00,72.3,60.3,30.19,WSW,258,8.1,8.1,66,0.00,SCT,FEW,0.00,WeatherDisplay:10.37,2013-08-29 16:03:00,
2013-08-29 17:08:00,72.0,60.0,30.19,WSW,258,8.1,8.1,66,0.00,SCT,FEW,0.00,WeatherDisplay:10.37,2013-08-29 16:08:00,
2013-08-29 17:13:00,72.1,60.2,30.19,WSW,258,1.2,4.2,66,0.00,SCT,FEW,0.00,WeatherDisplay:10.37,2013-08-29 16:13:00,
2013-08-29 17:18:00,72.0,60.0,30.19,WSW,258,6.9,6.9,66,0.00,SCT,FEW,0.00,WeatherDisplay:10.37,2013-08-29 16:18:00,
2013-08-29 17:23:00,71.8,59.8,30.19,WSW,258,6.9,6.9,66,0.00,SCT,FEW,0.00,WeatherDisplay:10.37,2013-08-29 16:23:00,
2013-08-29 17:28:00,71.8,59.8,30.19,WSW,258,9.2,9.2,66,0.00,SCT,FEW,0.00,WeatherDisplay:10.37,2013-08-29 16:28:00,
2013-08-29 17:33:00,71.6,60.1,30.19,WSW,258,9.3,9.3,67,0.00,SCT,FEW,0.00,WeatherDisplay:10.37,2013-08-29 16:33:00,
2013-08-29 17:38:00,71.6,59.6,30.18,NNW,348,5.8,5.8,66,0.00,SCT,FEW,0.00,WeatherDisplay:10.37,2013-08-29 16:38:00,
2013-08-29 17:43:00,71.4,59.5,30.18,SE,145,6.9,6.9,66,0.00,SCT,FEW,0.00,WeatherDisplay:10.37,2013-08-29 16:43:00,
2013-08-29 17:48:00,71.2,59.7,30.18,WSW,258,9.2,9.2,67,0.00,SCT,FEW,0.00,WeatherDisplay:10.37,2013-08-29 16:48:00,
2013-08-29 17:53:00,71.4,59.9,30.18,WSW,258,11.5,11.5,67,0.00,SCT,FEW,0.00,WeatherDisplay:10.37,2013-08-29 16:53:00,
2013-08-29 17:58:00,71.4,59.9,30.19,WSW,258,6.9,6.9,67,0.00,SCT,FEW,0.00,WeatherDisplay:10.37,2013-08-29 16:58:00,
2013-08-29 18:03:00,70.9,59.4,30.19,WSW,258,4.6,4.7,67,0.00,SCT,FEW,0.00,WeatherDisplay:10.37,2013-08-29 17:03:00,
2013-08-29 18:08:00,71.1,59.5,30.19,West,280,4.6,4.6,67,0.00,SCT,FEW,0.00,WeatherDisplay:10.37,2013-08-29 17:08:00,
2013-08-29 18:13:00,70.7,59.2,30.19,WSW,258,3.5,4.8,67,0.00,SCT,FEW,0.00,WeatherDisplay:10.37,2013-08-29 17:13:00,
2013-08-29 18:18:00,70.3,58.9,30.18,WSW,258,8.1,8.1,67,0.00,SCT,FEW,0.00,WeatherDisplay:10.37,2013-08-29 17:18:00,
2013-08-29 18:23:00,70.2,58.7,30.18,ENE,78,8.1,8.1,67,0.00,SCT,FEW,0.00,WeatherDisplay:10.37,2013-08-29 17:23:00,
2013-08-29 18:28:00,70.0,58.9,30.18,WSW,258,5.8,5.8,68,0.00,SCT,FEW,0.00,WeatherDisplay:10.37,2013-08-29 17:28:00,
2013-08-29 18:33:00,70.0,59.3,30.18,WSW,258,8.1,8.1,69,0.00,SCT,FEW,0.00,WeatherDisplay:10.37,2013-08-29 17:33:00,
2013-08-29 18:38:00,69.8,59.2,30.18,WSW,258,8.1,8.1,69,0.00,SCT,FEW,0.00,WeatherDisplay:10.37,2013-08-29 17:38:00,
2013-08-29 18:43:00,70.0,59.3,30.18,SE,145,3.5,3.6,69,0.00,SCT,FEW,0.00,WeatherDisplay:10.37,2013-08-29 17:43:00,
2013-08-29 18:48:00,70.0,59.3,30.18,West,280,6.9,6.9,69,0.00,SCT,FEW,0.00,WeatherDisplay:10.37,2013-08-29 17:48:00,
2013-08-29 18:53:00,69.6,59.4,30.18,West,280,6.9,6.9,70,0.00,SCT,FEW,0.00,WeatherDisplay:10.37,2013-08-29 17:53:00,
2013-08-29 18:58:00,69.6,59.4,30.18,ESE,122,5.8,5.8,70,0.00,SCT,FEW,0.00,WeatherDisplay:10.37,2013-08-29 17:58:00,
2013-08-29 19:03:00,68.9,58.7,30.18,WSW,258,6.9,6.9,70,0.00,SCT,FEW,0.00,WeatherDisplay:10.37,2013-08-29 18:03:00,
2013-08-29 19:08:00,68.7,58.5,30.18,West,280,3.6,3.6,70,0.00,SCT,FEW,0.00,WeatherDisplay:10.37,2013-08-29 18:08:00,
2013-08-29 19:13:00,68.5,58.8,30.18,West,280,6.9,6.9,71,0.00,SCT,FEW,0.00,WeatherDisplay:10.37,2013-08-29 18:13:00,
2013-08-29 19:18:00,68.4,58.6,30.18,NW,325,3.5,4.0,71,0.00,SCT,FEW,0.00,WeatherDisplay:10.37,2013-08-29 18:18:00,
2013-08-29 19:23:00,68.0,58.6,30.18,West,280,6.9,6.9,72,0.00,SCT,FEW,0.00,WeatherDisplay:10.37,2013-08-29 18:23:00,
2013-08-29 19:28:00,67.8,58.8,30.18,WSW,258,5.8,5.8,73,0.00,SCT,FEW,0.00,WeatherDisplay:10.37,2013-08-29 18:28:00,
2013-08-29 19:33:00,67.5,58.5,30.18,WSW,258,8.1,8.1,73,0.00,SCT,FEW,0.00,WeatherDisplay:10.37,2013-08-29 18:33:00,
2013-08-29 19:38:00,67.5,58.5,30.18,WSW,258,8.1,8.1,73,0.00,SCT,FEW,0.00,WeatherDisplay:10.37,2013-08-29 18:38:00,
2013-08-29 19:43:00,67.3,58.3,30.18,WSW,258,9.4,9.4,73,0.00,SCT,FEW,0.00,WeatherDisplay:10.37,2013-08-29 18:43:00,
2013-08-29 19:48:00,67.3,58.3,30.18,West,280,3.5,4.5,73,0.00,SCT,FEW,0.00,WeatherDisplay:10.37,2013-08-29 18:48:00,
2013-08-29 19:53:00,67.1,58.5,30.18,WSW,258,6.9,6.9,74,0.00,SCT,FEW,0.00,WeatherDisplay:10.37,2013-08-29 18:53:00,
2013-08-29 19:59:00,66.9,58.4,30.17,WSW,258,5.8,5.8,74,0.00,SCT,FEW,0.00,WeatherDisplay:10.37,2013-08-29 18:59:00,
2013-08-29 20:04:00,66.6,58.0,30.17,ESE,122,6.9,6.9,74,0.00,SCT,FEW,0.00,WeatherDisplay:10.37,2013-08-29 19:04:00,
2013-08-29 20:09:00,66.6,58.0,30.17,WSW,258,4.6,4.6,74,0.00,SCT,FEW,0.00,WeatherDisplay:10.37,2013-08-29 19:09:00,
2013-08-29 20:14:00,66.4,58.2,30.17,WSW,258,5.4,5.4,75,0.00,SCT,FEW,0.00,WeatherDisplay:10.37,2013-08-29 19:14:00,
2013-08-29 20:19:00,66.0,57.9,30.17,West,280,2.3,3.1,75,0.00,SCT,FEW,0.00,WeatherDisplay:10.37,2013-08-29 19:19:00,
2013-08-29 20:24:00,65.8,57.7,30.17,WSW,258,2.3,2.8,75,0.00,SCT,FEW,0.00,WeatherDisplay:10.37,2013-08-29 19:24:00,
2013-08-29 20:29:00,65.8,57.7,30.17,WSW,258,3.5,3.5,75,0.00,SCT,FEW,0.00,WeatherDisplay:10.37,2013-08-29 19:29:00,
2013-08-29 20:34:00,65.5,57.7,30.17,SSW,212,2.3,2.7,76,0.00,SCT,FEW,0.00,WeatherDisplay:10.37,2013-08-29 19:34:00,
2013-08-29 20:39:00,65.7,57.9,30.17,WSW,258,3.7,3.7,76,0.00,SCT,FEW,0.00,WeatherDisplay:10.37,2013-08-29 19:39:00,
2013-08-29 20:44:00,65.1,57.7,30.17,WSW,258,1.2,1.2,77,0.00,SCT,FEW,0.00,WeatherDisplay:10.37,2013-08-29 19:44:00,
2013-08-29 20:49:00,64.9,57.6,30.17,ESE,122,2.3,2.3,77,0.00,SCT,FEW,0.00,WeatherDisplay:10.37,2013-08-29 19:49:00,
2013-08-29 20:54:00,64.9,57.6,30.17,West,280,3.5,3.5,77,0.00,SCT,FEW,0.00,WeatherDisplay:10.37,2013-08-29 19:54:00,
2013-08-29 20:59:00,64.9,57.9,30.17,West,280,2.8,2.8,78,0.00,SCT,FEW,0.00,WeatherDisplay:10.37,2013-08-29 19:59:00,
2013-08-29 21:04:00,64.6,57.6,30.17,WSW,258,3.5,3.5,78,0.00,SCT,FEW,0.00,WeatherDisplay:10.37,2013-08-29 20:04:00,
2013-08-29 21:09:00,64.4,57.7,30.17,ESE,122,4.6,4.6,79,0.00,SCT,FEW,0.00,WeatherDisplay:10.37,2013-08-29 20:09:00,
2013-08-29 21:14:00,64.6,57.9,30.17,WSW,258,5.8,5.8,79,0.00,SCT,FEW,0.00,WeatherDisplay:10.37,2013-08-29 20:14:00,
2013-08-29 21:19:00,64.2,57.6,30.17,West,280,4.6,4.6,79,0.00,SCT,FEW,0.00,WeatherDisplay:10.37,2013-08-29 20:19:00,
2013-08-29 21:24:00,64.0,57.7,30.17,WSW,258,3.6,3.6,80,0.00,SCT,FEW,0.00,WeatherDisplay:10.37,2013-08-29 20:24:00,
2013-08-29 21:29:00,63.7,57.7,30.17,WSW,258,2.3,3.3,81,0.00,SCT,FEW,0.00,WeatherDisplay:10.37,2013-08-29 20:29:00,
2013-08-29 21:34:00,63.5,57.6,30.17,WNW,302,4.6,4.6,81,0.00,SCT,FEW,0.00,WeatherDisplay:10.37,2013-08-29 20:34:00,
2013-08-29 21:39:00,63.5,57.6,30.17,WSW,258,4.6,4.6,81,0.00,SCT,FEW,0.00,WeatherDisplay:10.37,2013-08-29 20:39:00,
2013-08-29 21:44:00,63.3,57.7,30.17,SE,145,3.5,3.5,82,0.00,SCT,FEW,0.00,WeatherDisplay:10.37,2013-08-29 20:44:00,
2013-08-29 21:49:00,63.1,57.6,30.17,WSW,258,5.8,5.8,82,0.00,SCT,FEW,0.00,WeatherDisplay:10.37,2013-08-29 20:49:00,
2013-08-29 21:54:00,63.3,57.7,30.17,WSW,258,8.1,8.1,82,0.00,SCT,FEW,0.00,WeatherDisplay:10.37,2013-08-29 20:54:00,
2013-08-29 21:59:00,63.3,57.7,30.17,WSW,258,2.3,3.3,82,0.00,SCT,FEW,0.00,WeatherDisplay:10.37,2013-08-29 20:59:00,
2013-08-29 22:04:00,63.1,57.9,30.17,WSW,258,4.6,4.6,83,0.00,BKN,FEW,0.00,WeatherDisplay:10.37,2013-08-29 21:04:00,
2013-08-29 22:09:00,63.1,57.9,30.17,West,280,5.0,5.0,83,0.00,BKN,FEW,0.00,WeatherDisplay:10.37,2013-08-29 21:09:00,
2013-08-29 22:14:00,63.0,57.7,30.17,NW,325,3.5,3.5,83,0.00,BKN,FEW,0.00,WeatherDisplay:10.37,2013-08-29 21:14:00,
2013-08-29 22:19:00,63.0,57.7,30.16,WSW,258,8.5,8.5,83,0.00,BKN,FEW,0.00,WeatherDisplay:10.37,2013-08-29 21:19:00,
2013-08-29 22:24:00,63.0,57.4,30.16,West,280,5.8,5.8,82,0.00,BKN,FEW,0.00,WeatherDisplay:10.37,2013-08-29 21:24:00,
2013-08-29 22:29:00,62.8,57.2,30.16,ESE,122,6.9,6.9,82,0.00,BKN,FEW,0.00,WeatherDisplay:10.37,2013-08-29 21:29:00,
2013-08-29 22:34:00,62.8,57.5,30.16,WSW,258,4.6,4.6,83,0.00,BKN,FEW,0.00,WeatherDisplay:10.37,2013-08-29 21:34:00,
2013-08-29 22:39:00,62.8,57.5,30.16,WSW,258,5.1,5.1,83,0.00,BKN,FEW,0.00,WeatherDisplay:10.37,2013-08-29 21:39:00,
2013-08-29 22:44:00,62.4,57.2,30.16,West,280,6.3,6.3,83,0.00,BKN,FEW,0.00,WeatherDisplay:10.37,2013-08-29 21:44:00,
2013-08-29 22:49:00,62.4,57.2,30.16,WSW,258,2.8,3.0,83,0.00,BKN,FEW,0.00,WeatherDisplay:10.37,2013-08-29 21:49:00,
2013-08-29 22:54:00,62.4,57.2,30.16,ESE,122,5.8,5.8,83,0.00,BKN,FEW,0.00,WeatherDisplay:10.37,2013-08-29 21:54:00,
2013-08-29 22:59:00,62.6,57.4,30.16,WSW,258,5.8,5.8,83,0.00,BKN,FEW,0.00,WeatherDisplay:10.37,2013-08-29 21:59:00,
2013-08-29 23:04:00,62.4,57.2,30.16,WSW,258,5.8,5.8,83,0.00,BKN,FEW,0.00,WeatherDisplay:10.37,2013-08-29 22:04:00,
2013-08-29 23:09:00,62.4,57.2,30.16,WSW,258,2.3,2.5,83,0.00,BKN,FEW,0.00,WeatherDisplay:10.37,2013-08-29 22:09:00,
2013-08-29 23:14:00,62.6,57.4,30.16,WSW,258,5.8,5.8,83,0.00,BKN,FEW,0.00,WeatherDisplay:10.37,2013-08-29 22:14:00,
2013-08-29 23:19:00,62.4,57.2,30.15,WSW,258,5.1,5.1,83,0.00,BKN,FEW,0.00,WeatherDisplay:10.37,2013-08-29 22:19:00,
2013-08-29 23:24:00,62.4,57.2,30.15,WSW,258,4.6,4.6,83,0.00,BKN,FEW,0.00,WeatherDisplay:10.37,2013-08-29 22:24:00,
2013-08-29 23:29:00,62.4,57.5,30.15,WSW,258,6.2,6.2,84,0.00,BKN,FEW,0.00,WeatherDisplay:10.37,2013-08-29 22:29:00,
2013-08-29 23:34:00,62.4,57.5,30.15,West,280,5.8,5.8,84,0.00,BKN,FEW,0.00,WeatherDisplay:10.37,2013-08-29 22:34:00,
2013-08-29 23:39:00,62.4,57.5,30.15,West,280,4.6,4.6,84,0.00,BKN,FEW,0.00,WeatherDisplay:10.37,2013-08-29 22:39:00,
2013-08-29 23:44:00,62.4,57.5,30.15,WSW,258,5.8,5.8,84,0.00,BKN,FEW,0.00,WeatherDisplay:10.37,2013-08-29 22:44:00,
2013-08-29 23:49:00,62.4,57.5,30.15,WSW,258,3.5,3.5,84,0.00,BKN,FEW,0.00,WeatherDisplay:10.37,2013-08-29 22:49:00,
2013-08-29 23:54:00,62.1,57.2,30.15,WSW,258,3.5,3.5,84,0.00,BKN,FEW,0.00,WeatherDisplay:10.37,2013-08-29 22:54:00,
2013-08-29 23:59:00,62.1,57.2,30.14,WSW,258,5.8,5.8,84,0.00,BKN,FEW,0.00,WeatherDisplay:10.37,2013-08-29 22:59:00,